Weather History for CWWE - December, 2012

Change the Weather History Date:

Sunday, December 9, 2012

  Actual Average Record
Temperature  
Mean Temperature 40 °F -  
Max Temperature 51 °F - - ()
Min Temperature 30 °F - - ()
Degree Days  
Heating Degree Days 24    
Moisture  
Dew Point 39 °F    
Average Humidity 86    
Maximum Humidity 100    
Minimum Humidity 57    
Precipitation  
Precipitation 0.00 in - - ()
Sea Level Pressure  
Sea Level Pressure 30.07 in    
Wind  
Wind Speed 9 mph ()    
Max Wind Speed 17 mph    
Max Gust Speed 28 mph    
T = Trace of Precipitation, MM = Missing Value Source: Averaged Metar Reports

Daily Weather History Graph

Daily Weather History Graph

Search for Another Location

Airport or City:

Trip Planner

Search our weather history database for the weather conditions in past years. The results will help you decide how hot, cold, wet, or windy it might be!

Date:

Astronomy

Dec. 09, 2012 Rise Set
Actual Time 7:41 AM AST 4:40 PM AST
Civil Twilight 7:09 AM AST 5:13 PM AST
Nautical Twilight 6:32 AM AST 5:49 PM AST
Astronomical Twilight 5:57 AM AST 6:24 PM AST
Moon 3:03 AM AST (12/9) 1:50 PM AST (12/9)
Length of Visible Light 10h 04m
Length of Day
8h 58m
Waning Crescent, 19% of the Moon is Illuminated
Dec 9
Waning Crescent
Dec 13
New
Dec 20
First Quarter
Dec 28
Full
Jan 4
Last Quarter

Hourly Weather History & Observations

Time (AST) Temp. Windchill Dew Point Humidity Pressure Visibility Wind Dir Wind Speed Gust Speed Precip Events Conditions
12:00 AM 50.0 °F - 49.6 °F 99% 29.82 in - SSW 9.2 mph - 0.02 in   Unknown
1:00 AM 49.3 °F - 49.1 °F 99% 29.81 in - SSW 11.5 mph - N/A   Unknown
2:00 AM 49 °F - 49 °F 100% 29.82 in - SSW 8.1 mph - -  
2:00 AM 49.5 °F - 49.3 °F 99% 29.82 in - SSW 8.1 mph - N/A   Unknown
3:00 AM 50.7 °F - 50.5 °F 99% 29.85 in - West 8.1 mph - N/A   Unknown
4:00 AM 48.9 °F - 48.4 °F 98% 29.87 in - West 10.4 mph - N/A   Unknown
5:00 AM 49 °F - 48 °F 93% 29.88 in - West 10.4 mph - -  
5:00 AM 48.6 °F - 47.7 °F 97% 29.88 in - West 10.4 mph 17.3 mph N/A   Unknown
6:00 AM 48.0 °F - 46.6 °F 95% 29.91 in - WNW 10.4 mph 19.6 mph N/A   Unknown
7:00 AM 46.4 °F 41.9 °F 45.0 °F 95% 29.95 in - West 9.2 mph - N/A   Unknown
8:00 AM 45 °F - 43 °F 92% 29.98 in - WNW 9.2 mph - -  
8:00 AM 45.1 °F 40.3 °F 43.3 °F 93% 29.98 in - WNW 9.2 mph - N/A   Unknown
9:00 AM 45.3 °F 41.1 °F 41.9 °F 88% 30.01 in - West 8.1 mph - N/A   Unknown
10:00 AM 46.2 °F 40.5 °F 40.8 °F 81% 30.04 in - WNW 12.7 mph 21.9 mph N/A   Unknown
11:00 AM 47 °F - 39 °F 65% 30.06 in - WNW 16.1 mph - -  
11:00 AM 46.6 °F - 39.0 °F 75% 30.06 in - WNW 16.1 mph 27.6 mph N/A   Unknown
12:00 PM 46.0 °F 39.3 °F 36.9 °F 70% 30.08 in - WNW 16.1 mph 23.0 mph N/A   Unknown
1:00 PM 45.5 °F 38.3 °F 36.1 °F 70% 30.09 in - WNW 17.3 mph 26.5 mph N/A   Unknown
2:00 PM 44 °F - 34 °F 57% 30.11 in - NW 13.8 mph - -  
2:00 PM 44.2 °F 37.6 °F 33.8 °F 67% 30.11 in - NW 13.8 mph 23.0 mph N/A   Unknown
3:00 PM 43.2 °F 37.0 °F 33.4 °F 69% 30.14 in - NW 11.5 mph - N/A   Unknown
4:00 PM 41.0 °F 36.4 °F 33.4 °F 74% 30.17 in - NW 6.9 mph - N/A   Unknown
5:00 PM 38 °F - 32 °F 73% 30.22 in - West 5.8 mph - -  
5:00 PM 37.6 °F 33.1 °F 31.6 °F 79% 30.22 in - West 5.8 mph - N/A   Unknown
6:00 PM 35.1 °F 31.0 °F 31.1 °F 85% 30.25 in - West 4.6 mph - N/A   Unknown
7:00 PM 33.6 °F 29.4 °F 31.1 °F 90% 30.27 in - West 4.6 mph - N/A   Unknown
8:00 PM 32 °F - 30 °F 87% 30.31 in - NW 4.6 mph - -  
8:00 PM 31.8 °F 27.3 °F 29.7 °F 92% 30.31 in - NW 4.6 mph - N/A   Unknown
9:00 PM 31.5 °F 25.8 °F 29.8 °F 94% 30.32 in - WNW 5.8 mph - N/A   Unknown
10:00 PM 31.8 °F 25.4 °F 29.8 °F 92% 30.32 in - NW 6.9 mph - N/A   Unknown
11:00 PM 30 °F - 28 °F 87% 30.31 in - NW 4.6 mph - -  
11:00 PM 30.2 °F 25.4 °F 27.7 °F 90% 30.31 in - NW 4.6 mph - N/A   Unknown